This demonstration page uses our WeatherBlox Daily Observations layout. Learn more.

Left ArrowRight Arrow

Hourly Observations for January 8, 2017

Temp ( °F °C ) Dew Point ( °F °C ) Humidity (%) Winds ( mph kmh ) Pressure ( in mb ) Visibility ( mi km ) Precip ( " mm )
12:17 am 00:17 Cloudy with Light Rain 41 5 41 5 100 100 Calm 30.00 1016 3 5 0.01 0.25
12:26 am 00:26 Cloudy with Light Rain 39 4 39 4 100 100 Calm 30.00 1016 3 4 0.00 0.00
12:33 am 00:33 Cloudy with Light Rain 40 4.4 40 4.4 100 100 NW 3 6 30.00 1016 3 5 0.03 0.76
12:53 am 00:53 Cloudy with Light Rain 41 5 41 5 100 100 Calm 29.98 1015 4 6 0.04 1.02
1:06 am 01:06 Cloudy with Mist and Fog 41 5 39 4 93 93 Calm 29.97 1015 3 5 0.00 0.00
1:14 am 01:14 Cloudy with Light Rain 41 5 41 5 100 100 Calm 29.97 1015 2 3 0.00 0.00
1:22 am 01:22 Cloudy with Light Rain 41 5 41 5 100 100 Calm 29.97 1015 2 3 0.00 0.00
1:30 am 01:30 Cloudy with Light Rain 41 5 41 5 100 100 Calm 29.94 1014 2 3 0.00 0.00
1:48 am 01:48 Cloudy with Light Rain 41 5 41 5 100 100 Calm 29.94 1014 3 5 0.00 0.00
1:53 am 01:53 Cloudy with Light Rain 41 5 41 5 100 100 Calm 29.95 1014 3 5 0.04 1.02
2:07 am 02:07 Cloudy with Light Rain 41 5 40 4.4 96 96 Calm 29.94 1014 3 5 0.01 0.25
2:34 am 02:34 Cloudy with Light Rain 39 4 39 4 100 100 W 3 6 29.94 1014 3 4 0.00 0.00
2:48 am 02:48 Cloudy with Rain 41 5 39 4 93 93 WNW 5 7 29.94 1014 3 5 0.00 0.00
2:53 am 02:53 Cloudy with Rain 41 5 40 4.4 96 96 WNW 5 7 29.93 1014 3 5 0.06 1.52
3:11 am 03:11 Cloudy with Rain 41 5 41 5 100 100 NW 3 6 29.94 1014 3 4 0.03 0.76
3:17 am 03:17 Cloudy with Rain 41 5 41 5 100 100 NW 3 6 29.94 1014 3 5 0.04 1.02
3:29 am 03:29 Cloudy with Rain 41 5 41 5 100 100 W 5 7 29.94 1014 3 5 0.08 2.03
3:34 am 03:34 Cloudy with Heavy Rain 41 5 41 5 100 100 W 5 7 29.94 1014 3 4 0.00 0.00
3:42 am 03:42 Cloudy with Heavy Rain 39 4 39 4 100 100 W 5 7 29.94 1014 2 3 0.00 0.00
3:53 am 03:53 Cloudy with Light Rain 40 4.4 40 4.4 100 100 Calm 29.90 1013 3 5 0.17 4.32
4:53 am 04:53 Cloudy with Rain 41 5 41 5 100 100 ESE 3 6 29.86 1011 3 5 0.14 3.56
5:10 am 05:10 Cloudy with Rain 43 6 43 6 100 100 Calm 29.88 1012 3 5 0.00 0.00
5:30 am 05:30 Cloudy with Rain 43 6 41 5 93 93 ENE 3 6 29.85 1011 4 6 0.00 0.00
5:45 am 05:45 Cloudy with Heavy Rain 42 5.6 42 5.6 100 100 Calm 29.85 1011 3 4 0.20 5.08
5:53 am 05:53 Cloudy with Heavy Rain 42 5.6 42 5.6 100 100 VRB 3 6 29.83 1010 2 3 0.24 6.10
6:01 am 06:01 Cloudy with Heavy Rain 42 5.6 42 5.6 100 100 Calm 29.85 1011 2 3 0.06 1.52
6:09 am 06:09 Cloudy with Heavy Rain 42 5.6 42 5.6 100 100 Calm 29.85 1011 3 4 0.10 2.54
6:20 am 06:20 Cloudy with Rain 42 5.6 42 5.6 100 100 W 5 7 29.85 1011 3 5 0.13 3.30
6:35 am 06:35 Cloudy with Heavy Rain 42 5.6 42 5.6 100 100 Calm 29.83 1010 2 3 0.19 4.83
6:50 am 06:50 Cloudy with Heavy Rain 43 6 43 6 100 100 N 3 6 29.83 1010 3 4 0.00 0.00
6:53 am 06:53 Cloudy with Rain 43 6.1 42 5.6 97 97 N 6 9 29.80 1009 3 4 0.28 7.11
7:00 am 07:00 Cloudy with Rain 43 6 43 6 100 100 Calm 29.83 1010 4 6 0.00 0.00
7:05 am 07:05 Cloudy with Heavy Rain 43 6.1 43 6.1 100 100 W 3 6 29.83 1010 3 4 0.06 1.52
7:16 am 07:16 Cloudy with Light Rain 43 6 43 6 100 100 Calm 29.83 1010 4 6 0.00 0.00
7:53 am 07:53 Cloudy with Light Rain 43 6.1 43 6.1 100 100 WNW 5 7 29.78 1009 4 6 0.18 4.57
8:06 am 08:06 Cloudy with Light Rain 43 6.1 43 6.1 100 100 NW 3 6 29.80 1009 2 3 0.01 0.25
8:25 am 08:25 Cloudy with Light Rain 43 6.1 43 6.1 100 100 WNW 5 7 29.80 1009 1 2 0.02 0.51
8:36 am 08:36 Cloudy with Light Rain 43 6 43 6 100 100 W 6 9 29.80 1009 2 2 0.00 0.00
8:44 am 08:44 Cloudy with Rain 43 6 43 6 100 100 W 5 7 29.80 1009 1 2 0.00 0.00
8:53 am 08:53 Cloudy with Rain 44 6.7 44 6.7 100 100 WNW 5 7 29.78 1008 2 3 0.09 2.29
9:10 am 09:10 Cloudy with Rain 45 7 45 7 100 100 WNW 6 9 29.80 1009 3 5 0.00 0.00
9:33 am 09:33 Cloudy with Light Rain 44 6.7 44 6.7 100 100 Calm 29.80 1009 4 6 0.10 2.54
9:42 am 09:42 Cloudy with Rain 45 7 45 7 100 100 Calm 29.77 1008 2 3 0.00 0.00
9:53 am 09:53 Cloudy with Light Rain 44 6.7 44 6.7 100 100 WSW 3 6 29.75 1007 3 4 0.13 3.30
10:00 am 10:00 Cloudy with Light Rain 44 6.7 44 6.7 100 100 SW 5 7 29.77 1008 4 6 0.01 0.25
10:51 am 10:51 Cloudy with Light Rain 45 7 45 7 100 100 WNW 7 11 29.74 1007 4 6 0.08 2.03
10:53 am 10:53 Cloudy with Light Rain 45 7.2 45 7.2 100 100 WNW 7 11 29.72 1006 4 6 0.08 2.03
11:13 am 11:13 Cloudy with Light Rain 46 7.8 45 7.2 96 96 WNW 6 9 29.71 1006 10 16 0.00 0.00
11:34 am 11:34 Cloudy with Light Rain 46 8 46 8 100 100 WSW 8 13 29.71 1006 10 16 0.00 0.00
11:53 am 11:53 Cloudy with Light Rain 47 8.3 47 8.3 100 100 SW 8 13 29.67 1005 10 16 0.01 0.25
12:06 pm 12:06 Cloudy with Heavy Rain 48 9 48 9 100 100 WSW 9 15 29.68 1005 2 3 0.00 0.00
12:18 pm 12:18 Cloudy with Heavy Rain 48 9 48 9 100 100 SSW 10 17 29.68 1005 3 4 0.00 0.00
12:29 pm 12:29 Cloudy with Rain 53 11.7 52 11.1 96 96 SW 16 26 29.62 1003 5 8 0.14 3.56
12:53 pm 12:53 Cloudy with Light Rain 57 13.9 56 13.3 96 96 S 31 50 29.60 1002 8 13 0.16 4.06
1:53 pm 13:53 Cloudy with Light Rain 58 14.4 57 13.9 97 97 SSW 21 33 29.59 1002 6 10 0.07 1.78
2:01 pm 14:01 Cloudy with Rain 58 14.4 57 13.9 97 97 S 30 48 29.59 1002 4 6 0.02 0.51
2:06 pm 14:06 Cloudy with Rain 59 15 57 14 94 94 S 30 48 29.59 1002 3 4 0.00 0.00
2:15 pm 14:15 Cloudy with Rain 59 15 57 13.9 93 93 SSW 21 33 29.62 1003 3 5 0.07 1.78
2:42 pm 14:42 Cloudy with Heavy Rain 57 14 57 14 100 100 S 24 39 29.62 1003 2 3 0.00 0.00
2:53 pm 14:53 Cloudy with Rain 59 15 57 13.9 93 93 S 26 43 29.61 1003 3 4 0.21 5.33
3:01 pm 15:01 Cloudy with Light Rain 59 15 57 13.9 93 93 S 26 43 29.62 1003 9 14 0.00 0.00
3:44 pm 15:44 Cloudy 59 15 57 14 94 94 S 29 46 29.62 1003 10 16 0.00 0.00
3:53 pm 15:53 Cloudy 59 15 57 13.9 93 93 S 28 44 29.62 1003 10 16 0.02 0.51
4:50 pm 16:50 Cloudy 57 14 57 14 100 100 S 22 35 29.62 1003 10 16 0.00 0.00
4:53 pm 16:53 Cloudy 59 15 57 13.9 93 93 S 23 37 29.62 1003 10 16 0.01 0.25
5:53 pm 17:53 Cloudy with Light Rain 58 14.4 57 13.9 97 97 S 31 50 29.63 1003 8 13 0.01 0.25
6:46 pm 18:46 Cloudy 57 14 55 13 94 94 S 26 43 29.65 1004 10 16 0.00 0.00
6:53 pm 18:53 Cloudy 58 14.4 56 13.3 93 93 S 26 43 29.65 1004 10 16 0.01 0.25
7:53 pm 19:53 Cloudy 58 14.4 56 13.3 93 93 S 26 43 29.67 1005 10 16 0.00 0.00
8:53 pm 20:53 Cloudy 57 13.9 55 12.8 93 93 S 24 39 29.69 1006 10 16 0.00 0.00
9:53 pm 21:53 Mostly Cloudy 57 13.9 55 12.8 93 93 S 20 31 29.71 1006 10 16 0.00 0.00
10:53 pm 22:53 Cloudy with Light Rain 56 13.3 55 12.8 97 97 SSW 12 19 29.74 1007 10 16 0.01 0.25
11:53 pm 23:53 Cloudy 56 13.3 53 11.7 90 90 SW 17 28 29.76 1008 10 16 0.00 0.00

Powered by AerisWeather